Home > Weather > Marseille > Past weeks

Flag for France Weather for the Past 2 Weeks in Marseille, Provence-Alpes-Côte d'Azur, France

Now
64 °F

Passing clouds.


Feels Like: 64 °F
Forecast: 53 / 70 °F
Wind: 16 mph from Northwest

Location: Marseille / Marignane

Current Time: May 3, 2016 at 10:49:38 AM

Latest Report: May 3, 2016 at 10:00 AM


Visibility: N/A

Pressure: 30.04 "Hg

Humidity: 46%

Dew Point: 43 °F

Location of MarseilleLocation

Historic Weather in Marseille — Graph

°F

Marseille Temperature Yesterday

Maximum temperature yesterday: 72 °F (at 5:00 PM)
Minimum temperature yesterday: 50 °F (at 12:00 AM)
Average temperature yesterday: 61 °F

High & Low Weather Summary for the Past Weeks

 TemperatureHumidityPressure
High75 °F (Apr 20, 3:00 PM)94% (Apr 22, 3:30 AM)30.15 "Hg (Apr 22, 3:30 AM)
Low41 °F (Apr 26, 6:30 AM)21% (Apr 28, 4:30 PM)29.74 "Hg (Apr 23, 4:30 PM)
Average58 °F56%29.97 "Hg
* Reported Apr 18 9:00 AM — May 3 9:30 AM, Marseille, Weather by CustomWeather, © 2016

Note: Actual official high and low records may vary slightly from our data, if they occured in-between our weather recording intervals... More about our weather records

Advertising

Marseille Weather History for the Previous 24 Hours

Scroll right to see more
 ConditionsComfort  
Time TempWeatherWind HumidityBarometerVisibility
9:30 AM
Tue, May 3
63 °FSunny.15 mph49%30.04 "Hg10 mi
9:00 AM63 °FPassing clouds.13 mph49%30.04 "HgN/A
8:30 AM61 °FPassing clouds.12 mph52%30.04 "HgN/A
8:00 AM59 °FSunny.16 mph55%30.04 "Hg10 mi
7:30 AM59 °FSunny.21 mph55%30.01 "Hg10 mi
7:00 AM57 °FClear.18 mph59%30.01 "Hg10 mi
6:30 AM57 °FClear.21 mph59%30.01 "Hg10 mi
6:00 AM57 °FClear.18 mph63%30.01 "Hg10 mi
5:30 AM59 °FClear.17 mph59%30.01 "Hg10 mi
5:00 AM59 °FClear.13 mph59%30.01 "Hg10 mi
4:30 AM59 °FClear.12 mph59%30.01 "Hg10 mi
3:30 AM59 °FClear.12 mph59%30.01 "Hg10 mi
3:00 AM59 °FClear.10 mph59%30.01 "Hg10 mi
2:30 AM59 °FClear.10 mph59%30.01 "Hg10 mi
2:00 AM61 °FClear.9 mph59%30.01 "Hg10 mi
1:30 AM61 °FClear.12 mph55%30.01 "Hg10 mi
1:00 AM61 °FClear.13 mph55%30.04 "Hg10 mi
12:30 AM61 °FClear.12 mph55%30.04 "Hg10 mi
12:00 AM63 °FClear.8 mph52%30.01 "Hg10 mi
11:00 PM
Mon, May 2
64 °FClear.14 mph52%30.01 "Hg10 mi
10:30 PM64 °FClear.16 mph52%29.98 "Hg10 mi
10:00 PM64 °FClear.10 mph52%29.98 "Hg10 mi
9:30 PM64 °FSunny.12 mph49%29.98 "Hg10 mi
9:00 PM66 °FSunny.16 mph46%29.95 "Hg10 mi
8:30 PM68 °FSunny.18 mph43%29.95 "Hg10 mi
8:00 PM68 °FSunny.20 mph43%29.92 "Hg10 mi
7:30 PM70 °FSunny.18 mph40%29.92 "Hg10 mi
7:00 PM70 °FSunny.22 mph40%29.92 "Hg10 mi
6:30 PM72 °FSunny.20 mph38%29.92 "Hg10 mi
6:00 PM70 °FSunny.22 mph40%29.89 "Hg10 mi
5:30 PM72 °FSunny.24 mph38%29.89 "Hg10 mi
5:00 PM72 °FSunny.21 mph38%29.89 "Hg10 mi
4:30 PM70 °FSunny.18 mph40%29.89 "Hg10 mi
4:00 PM70 °FSunny.18 mph40%29.92 "Hg10 mi
3:38 PM70 °FSunny.22 mph38%29.92 "Hg10 mi
3:00 PM70 °FSunny.17 mph40%29.92 "Hg10 mi
2:30 PM68 °FSunny.17 mph43%29.92 "Hg10 mi
2:00 PM68 °FSunny.18 mph46%29.92 "Hg10 mi
1:38 PM66 °FSunny.20 mph46%29.92 "Hg10 mi
1:30 PM68 °FSunny.18 mph43%29.92 "Hg10 mi
1:00 PM64 °FSunny.21 mph52%29.92 "Hg10 mi
12:30 PM64 °FSunny.21 mph49%29.95 "Hg10 mi
12:00 PM64 °FSunny.17 mph49%29.95 "Hg10 mi
11:30 AM63 °FSunny.17 mph52%29.95 "Hg10 mi
11:00 AM63 °FSunny.15 mph49%29.95 "Hg10 mi
10:30 AM61 °FPassing clouds.15 mph52%29.95 "HgN/A
10:00 AM59 °FSunny.17 mph55%29.95 "Hg10 mi
Weather by CustomWeather, © 2016

See weather overviewHow to use our weather pages